Location: The D'Auria's Ocala Star Observatory
(29.0276°N, 82.1742°W)
Time: 03:56:29
(UTC-04:00)

Daily predictions for brighter satellites

Satellite Brightness Start Highest point End
(mag) Time Altitude Azimuth Time Altitude Azimuth Time Altitude Azimuth
Cosmos 1943 Rocket 4.1 00:17:21 10° N 00:19:48 23° NNE 00:19:48 23° NNE
Cosmos 2369 Rocket 4.2 00:40:52 10° NW 00:42:56 22° NW 00:42:56 22° NW
CZ-4C R/B 4.2 01:48:52 23° NNE 01:48:52 23° NNE 01:51:02 10° NNE
Cosmos 2344 4.0 01:58:28 55° NE 01:58:28 55° NE 02:04:41 10° NNE
CENTAUR R/B 4.4 02:10:44 21° ENE 02:10:44 21° ENE 02:13:14 10° NE
H-2A R/B 4.5 02:14:44 19° ENE 02:14:44 19° ENE 02:17:41 10° ENE
Cosmos 1980 Rocket 4.2 02:57:28 10° NNE 03:01:49 23° ENE 03:04:06 18° E
Cosmos 2082 Rocket 3.8 03:11:43 27° NNW 03:11:43 27° NNW 03:14:54 10° N
USA 215 4.5 03:10:44 10° NNE 03:16:15 30° NW 03:17:12 29° NW
ATLAS 2A CENTAUR R/B 4.0 03:21:16 36° SE 03:21:16 36° SE 03:38:58 10° E
SEDSat Delta rocket 4.3 03:23:47 61° E 03:23:47 61° E 03:29:06 10° ENE
Cosmos 1697 Rocket 3.3 03:18:50 10° NNW 03:23:25 53° NNE 03:23:25 53° NNE
Cosmos 1833 Rocket 4.2 03:29:15 27° NW 03:29:15 27° NW 03:32:42 10° N
CZ-2D R/B 3.8 03:24:34 10° NE 03:28:44 24° E 03:29:13 23° ESE
Cosmos 968 Rocket 4.1 03:38:14 52° NNE 03:38:14 52° NNE 03:42:07 10° NNE
CZ-3 Stage 3 3.3 03:23:07 10° W 03:44:13 84° N 03:48:11 10° E
ATLAS 5 CENTAUR R/B 3.7 03:45:09 20° ESE 03:45:09 20° ESE 03:48:42 10° ENE
Atlas Centaur 2 3.5 03:50:23 37° SE 03:50:23 37° SE 03:54:23 10° SE
ADEOS 4.0 03:48:28 10° N 03:52:43 54° NNW 03:52:43 54° NNW
SL-16 R/B 4.3 03:53:17 10° N 03:57:51 25° ENE 04:02:24 10° ESE
CENTAUR R/B 3.4 03:57:54 34° WNW 03:58:14 34° NW 04:04:09 10° N
Cosmos 1777 Rocket 4.0 03:59:40 78° E 03:59:40 78° E 04:04:49 10° NNE
Cosmos 332 Rocket 4.1 03:54:46 10° NNW 03:58:49 61° NNE 03:58:49 61° NNE
Cosmos 1709 Rocket 3.9 04:02:08 66° S 04:03:07 89° ESE 04:09:27 10° N
Meteor 1-4 Rocket 4.1 04:01:04 10° N 04:03:48 37° NE 04:03:48 37° NE
Lacrosse 5 3.9 04:00:44 10° NNW 04:05:04 28° NE 04:09:22 10° ESE
Nadezhda 1 Rocket 4.0 04:01:43 10° NNW 04:07:29 56° W 04:07:29 56° W
Meteor 2-10 4.1 04:02:35 10° N 04:07:49 77° E 04:08:39 62° SE
IRS-1D 3.5 04:04:09 10° NNE 04:09:31 86° ESE 04:09:56 76° S
Cosmos 1271 Rocket 3.7 04:08:16 10° N 04:11:02 43° NNE 04:11:02 43° NNE
Cosmos 2322 Rocket 3.6 04:08:10 10° N 04:13:20 36° ENE 04:18:26 10° SE
Cosmos 1626 3.4 04:15:54 36° N 04:15:54 36° N 04:18:15 10° N
ARIANE 5 R/B 2.4 04:10:39 10° N 04:15:43 71° WNW 04:15:46 71° W
Centaur D-1AR AC-48 4.1 03:22:30 10° WSW 04:17:22 59° S 04:23:33 10° ESE
Delta 198 4.5 04:19:28 43° SSE 04:19:28 43° SSE 04:24:02 10° ESE
Myojo/LAPS 4.3 04:18:06 60° SW 04:18:58 73° SSE 04:36:50 10° E
CZ-2D R/B 4.5 04:18:25 10° NNE 04:22:20 40° E 04:23:12 35° SE
Okean O Rocket 2.9 04:18:32 10° NNE 04:22:35 35° E 04:24:15 26° SE
Resurs 1-4 Rocket 2.1 04:30:36 10° N 04:35:53 66° WNW 04:37:09 49° SW
MTI 4.0 04:38:18 72° NE 04:38:18 72° NE 04:41:27 10° N
OAO 3 Rocket 3.9 04:40:13 31° WNW 04:42:01 47° N 04:46:36 10° ENE
Cosmos 2221 Rocket 4.3 04:38:24 10° N 04:42:49 54° E 04:46:51 12° SSE
Cosmos 1862 Rocket 4.0 04:39:42 10° NNW 04:43:43 44° W 04:43:43 44° W
Cosmos 1980 Rocket 2.7 04:40:42 10° NW 04:45:46 37° WSW 04:45:46 37° WSW
Cosmos 2219 4.3 04:41:38 15° SSE 04:45:50 40° ESE 04:51:09 10° NE
CZ-4B R/B 3.7 04:42:33 10° NNE 04:47:56 58° ESE 04:52:10 17° S
GPS 2-05 Rocket1 2.9 04:50:55 61° NW 04:51:11 64° NNW 04:54:39 10° ENE
Cosmos 371 Rocket 3.6 04:48:31 10° NNW 04:53:04 42° WSW 04:53:39 40° WSW
PSLV R/B 3.4 04:53:39 57° SSE 04:53:39 57° SSE 04:56:32 10° SE
Cosmos 1346 4.2 04:54:13 34° NW 04:54:13 34° NW 04:56:23 10° N
Cosmos 2181 Rocket 4.1 04:49:11 10° NNW 04:55:08 54° W 04:58:37 25° SSW
ASTRO F (AKARI) 4.4 04:55:37 31° SSE 04:57:09 84° ENE 05:00:28 10° N
CZ-4B R/B 3.6 04:55:18 10° NNE 04:59:12 52° E 05:02:24 16° S
PAYLOAD B 4.2 04:55:31 10° NNE 05:01:02 82° ESE 05:05:19 17° S
SL-08 ROCKET BODY 4.3 04:56:38 18° S 05:01:15 89° W 05:07:20 10° N
Cosmos 1869 Rocket 3.6 05:01:09 37° SW 05:02:38 57° W 05:06:57 10° N
CZ-4B DEB 4.4 04:57:28 10° NNE 05:02:57 72° ESE 05:07:49 13° S
Cosmos 1869 4.2 05:01:33 10° NNW 05:04:56 30° W 05:04:56 30° W
SL-16 R/B 2.8 05:02:48 19° SSW 05:06:57 45° W 05:12:56 10° NNW
Cosmos 2298 Rocket 4.0 05:04:52 20° SSW 05:08:37 85° ESE 05:13:58 10° NNE
CZ-2D R/B 3.0 05:04:11 10° NNW 05:08:43 30° WNW 05:10:33 24° WSW
UNKNOWN OBJECT B 3.7 05:05:33 10° NNW 05:08:50 28° WNW 05:09:20 28° W
SEDSat Delta rocket 4.1 05:03:54 16° W 05:09:25 71° N 05:15:41 10° E
Cosmos 1833 4.5 05:10:45 25° SW 05:13:59 54° WNW 05:19:39 10° N
Cosmos 1455 4.0 05:11:42 10° NW 05:13:22 16° WNW 05:13:22 16° WNW
Cosmos 1610 Rocket 4.5 05:10:14 11° S 05:16:21 80° W 05:22:41 10° N
Cosmos 304 Rocket 3.9 05:12:01 10° NNW 05:16:51 78° ENE 05:21:40 10° SSE
IRS-1C Rocket 4.5 05:12:19 10° N 05:17:19 45° WNW 05:20:31 21° SW
Cosmos 1933 3.6 05:14:25 10° NNW 05:18:16 45° W 05:20:41 20° SSW
Meteor 2-3 Rocket 3.8 05:14:53 10° S 05:20:36 89° W 05:26:25 10° N
Cosmos 1892 3.6 05:21:17 10° S 05:25:03 50° E 05:28:50 10° NNE
Cosmos 2074 Rocket 4.5 05:23:09 18° SW 05:27:21 40° W 05:33:10 10° NNW
Cosmos 2184 Rocket 4.5 05:23:09 17° SW 05:27:45 43° W 05:33:45 10° N
ATLAS 5 CENTAUR R/B 2.8 05:26:43 19° WSW 05:29:28 32° NW 05:34:01 10° N
Lacrosse 5 rocket 3.3 05:25:30 10° NNW 05:29:41 37° NE 05:33:56 10° ESE
Cosmos 923 Rocket 4.3 05:25:42 10° NNW 05:30:39 43° W 05:35:34 10° S
Thor Agena Rocket 3.6 05:29:16 10° S 05:34:28 63° WSW 05:39:43 10° NNW
Atlas Centaur 2 3.8 05:33:10 15° WSW 05:36:20 20° SW 05:40:48 10° S
Cosmos 1733 Rocket 3.0 05:35:31 10° S 05:39:49 89° E 05:44:10 10° N
Cosmos 1680 Rocket 3.8 05:36:47 10° NNW 05:41:44 45° WSW 05:46:40 10° S
SL-16 R/B 2.8 05:36:51 10° NW 05:41:54 34° WSW 05:46:56 10° SSW
Cosmos 389 Rocket 3.4 05:41:13 10° N 05:44:51 53° E 05:48:27 10° SSE
CZ-2C R/B 4.4 05:41:59 10° SSW 05:45:52 30° W 05:49:49 10° NW
Lacrosse 5 2.5 05:43:27 10° WNW 05:47:58 33° WSW 05:52:28 10° S
GPS 2-14 Rocket1 4.1 05:47:48 13° SW 05:50:33 24° S 05:53:56 10° SE
Feng Yun 1-1 Rocket 4.4 05:45:07 10° N 05:50:52 81° WNW 05:56:44 10° SSW
Cosmos 990 Rocket 4.1 05:46:00 10° SSW 05:51:12 85° ESE 05:56:23 10° NNE
Cosmos 2322 Rocket 3.3 05:52:53 10° NW 05:57:02 22° W 06:01:11 10° SSW
USA 229 DEB 4.0 05:50:27 10° SW 05:57:10 53° WNW 06:03:58 10° NNE
USA 229 4.0 05:50:32 10° SW 05:57:16 54° WNW 06:04:05 10° NNE
Okean O Rocket 3.5 05:56:06 10° NW 05:58:36 15° WNW 06:01:07 10° WSW
GOES 2 Rocket 3.6 05:56:56 10° SW 06:00:55 42° SSE 06:05:00 10° E
Cosmos 1340 Rocket 2.9 05:59:27 10° S 06:03:30 89° W 06:07:34 10° N
ADEOS II 2.2 05:58:50 10° NNE 06:04:07 90° SE 06:09:23 10° SSW
OE (NEXTSAT) 4.4 06:04:06 10° SW 06:07:41 86° NW 06:11:18 10° NE
Cosmos 2218 Rocket 4.4 06:01:43 10° S 06:07:48 67° E 06:13:52 10° NNE
GP-B 3.2 06:05:37 10° N 06:09:58 57° W 06:14:19 10° SSW
Cosmos 1908 Rocket 3.7 06:05:49 10° S 06:10:16 85° E 06:14:42 10° N
Cosmos 220 Rocket 4.0 06:06:17 10° SSW 06:10:26 65° WNW 06:14:41 10° N
ADEOS Rocket 3.4 06:07:36 10° NNE 06:13:44 67° E 06:19:19 10° S
